Location: Roah Hook
(42.4840°N, 73.7893°W)
Time: 08:54:15
(UTC+00:00)

ARIANE 6 FM1 Upper Stage - Pass Details

Date: 19 October 2024
Orbit: 558 x 596 km, 62.0° (Epoch: 11 November)

Event Time Altitude Azimuth Distance (km) Brightness Sun altitude
Rises 23:37:16 0° 326° (NNW) 2,829 6.8 -17.6°
Reaches altitude 10° 23:39:36 10° 334° (NNW) 1,930 5.8 -18.0°
Maximum altitude 23:43:47 43° 46° (NE) 844 3.2 -18.8°
Enters shadow 23:44:20 41° 67° (ENE) 874 3.2 -18.9°
